When you browse on this site, cookies collect data to enhance your experience and personalize the content and advertising you see.
Visit our Privacy Policy to learn more. By continuing to use the site, you agree to this use of cookies and data.
  • In Hungary
  • List of Countries
  • For 7 days
  • Water Temperature
  • Satellite Maps
  • Weather Map
  • News
  • Weather Widgets
  • user-avatar
    Login

    Hourly Weather Skadovsk

    Today, 22 January, Tuesday

    Time Temperature Precipitation Wind Pressure Humidity
    00:00 -6°C° 0 mm 6 mps 766 mmHg 78%
    01:00 -8°C° 0 mm 6 mps 766 mmHg 78%
    02:00 -7°C° 0 mm 5 mps 767 mmHg 73%
    03:00 -7°C° 0 mm 5 mps 767 mmHg 73%
    04:00 -7°C° 0 mm 4 mps 767 mmHg 72%
    05:00 -7°C° 0 mm 4 mps 767 mmHg 71%
    06:00 -6°C° 0 mm 3 mps 767 mmHg 70%
    07:00 -6°C° 0 mm 3 mps 767 mmHg 69%
    08:00 -6°C° 0 mm 3 mps 767 mmHg 68%
    09:00 -5°C° 0 mm 3 mps 767 mmHg 65%
    10:00 -4°C° 0 mm 3 mps 767 mmHg 61%
    11:00 -4°C° 0 mm 3 mps 767 mmHg 57%
    12:00 -2°C° 0 mm 3 mps 767 mmHg 55%
    13:00 -2°C° 0 mm 3 mps 766 mmHg 53%
    14:00 -1°C° 0 mm 3 mps 766 mmHg 51%
    15:00 -3°C° 0 mm 4 mps 766 mmHg 55%
    16:00 -3°C° 0 mm 4 mps 765 mmHg 59%
    17:00 -3°C° 0 mm 4 mps 765 mmHg 63%
    18:00 -4°C° 0 mm 5 mps 765 mmHg 65%
    19:00 -4°C° 0 mm 6 mps 764 mmHg 68%
    20:00 -4°C° 0 mm 6 mps 764 mmHg 70%
    21:00 -4°C° 0 mm 6 mps 764 mmHg 73%
    22:00 -4°C° 0 mm 6 mps 764 mmHg 76%
    23:00 -4°C° 0 mm 6 mps 763 mmHg 79%

    Tomorrow, 23 January, Wednesday

    Time Temperature Precipitation Wind Pressure Humidity
    00:00 -3°C° 0.1 mm 7 mps 763 mmHg 79%
    01:00 -3°C° 0.1 mm 7 mps 762 mmHg 78%
    02:00 -4°C° 0.1 mm 8 mps 762 mmHg 78%
    03:00 -4°C° 0.1 mm 8 mps 761 mmHg 79%
    04:00 -4°C° 0.1 mm 8 mps 760 mmHg 79%
    05:00 -3°C° 0.1 mm 7 mps 760 mmHg 80%
    06:00 -4°C° 0.1 mm 8 mps 759 mmHg 82%
    07:00 -4°C° 0.1 mm 8 mps 759 mmHg 84%
    08:00 -4°C° 0.1 mm 8 mps 759 mmHg 86%
    09:00 -3°C° 0.1 mm 9 mps 758 mmHg 86%
    10:00 -3°C° 0.1 mm 9 mps 758 mmHg 85%
    11:00 -1°C° 0.1 mm 9 mps 757 mmHg 85%
    12:00 0°C° 1.2 mm 8 mps 756 mmHg 86%
    13:00 0°C° 1.2 mm 8 mps 756 mmHg 88%
    14:00 +1°C° 1.2 mm 8 mps 755 mmHg 89%
    15:00 +2°C° 0.6 mm 9 mps 755 mmHg 89%
    16:00 +2°C° 0.6 mm 9 mps 754 mmHg 89%
    17:00 +3°C° 0.6 mm 10 mps 754 mmHg 89%
    18:00 +3°C° 0 mm 10 mps 754 mmHg 88%
    19:00 +5°C° 0 mm 10 mps 754 mmHg 87%
    20:00 +5°C° 0 mm 10 mps 754 mmHg 86%
    21:00 +5°C° 0 mm 9 mps 754 mmHg 87%
    22:00 +5°C° 0 mm 9 mps 754 mmHg 88%
    23:00 +4°C° 0 mm 8 mps 754 mmHg 90%

    Day after tomorrow, 24 January, Thursday

    Time Temperature Precipitation Wind Pressure Humidity
    00:00 +5°C° 0 mm 7 mps 754 mmHg 91%
    01:00 +5°C° 0 mm 7 mps 754 mmHg 93%
    02:00 +5°C° 0 mm 6 mps 755 mmHg 94%
    03:00 +5°C° 0.5 mm 6 mps 754 mmHg 95%
    04:00 +5°C° 0.5 mm 6 mps 754 mmHg 96%
    05:00 +5°C° 0.5 mm 6 mps 754 mmHg 98%
    06:00 +6°C° 0.4 mm 5 mps 754 mmHg 97%
    07:00 +6°C° 0.4 mm 5 mps 754 mmHg 97%
    08:00 +6°C° 0.4 mm 4 mps 755 mmHg 97%
    09:00 +7°C° 0 mm 4 mps 754 mmHg 94%
    10:00 +8°C° 0 mm 3 mps 754 mmHg 90%
    11:00 +9°C° 0 mm 3 mps 754 mmHg 87%
    12:00 +10°C° 0 mm 3 mps 754 mmHg 83%
    13:00 +10°C° 0 mm 4 mps 753 mmHg 80%
    14:00 +11°C° 0 mm 4 mps 753 mmHg 76%
    15:00 +10°C° 0 mm 4 mps 753 mmHg 80%
    16:00 +8°C° 0 mm 5 mps 753 mmHg 84%
    17:00 +7°C° 0 mm 5 mps 753 mmHg 87%
    18:00 +6°C° 0 mm 5 mps 753 mmHg 87%
    19:00 +5°C° 0 mm 5 mps 753 mmHg 88%
    20:00 +5°C° 0 mm 5 mps 753 mmHg 88%
    21:00 +4°C° 0 mm 4 mps 753 mmHg 89%
    22:00 +4°C° 0 mm 4 mps 753 mmHg 90%
    23:00 +3°C° 0 mm 3 mps 753 mmHg 91%

    25 January, Friday

    Time Temperature Precipitation Wind Pressure Humidity
    00:00 +3°C° 0 mm 3 mps 753 mmHg 91%
    01:00 +4°C° 0 mm 2 mps 753 mmHg 91%
    02:00 +4°C° 0 mm 2 mps 753 mmHg 91%
    03:00 +4°C° 0 mm 2 mps 753 mmHg 91%
    04:00 +4°C° 0 mm 2 mps 753 mmHg 91%
    05:00 +3°C° 0 mm 2 mps 753 mmHg 90%
    06:00 +3°C° 0 mm 2 mps 754 mmHg 90%
    07:00 +4°C° 0 mm 2 mps 754 mmHg 90%
    08:00 +4°C° 0 mm 2 mps 754 mmHg 90%
    09:00 +5°C° 0 mm 2 mps 755 mmHg 85%
    10:00 +7°C° 0 mm 1 mps 755 mmHg 80%
    11:00 +8°C° 0 mm 1 mps 755 mmHg 74%
    12:00 +9°C° 0 mm 1 mps 755 mmHg 72%
    13:00 +9°C° 0 mm 2 mps 755 mmHg 70%
    14:00 +10°C° 0 mm 2 mps 755 mmHg 67%
    15:00 +9°C° 0 mm 2 mps 755 mmHg 73%
    16:00 +8°C° 0 mm 3 mps 755 mmHg 79%
    17:00 +7°C° 0 mm 3 mps 755 mmHg 85%
    18:00 +7°C° 0 mm 3 mps 756 mmHg 88%
    19:00 +7°C° 0 mm 3 mps 756 mmHg 90%
    20:00 +7°C° 0 mm 3 mps 756 mmHg 92%
    21:00 +7°C° 0 mm 3 mps 756 mmHg 91%
    22:00 +7°C° 0 mm 3 mps 756 mmHg 91%
    23:00 +6°C° 0 mm 4 mps 756 mmHg 90%

    26 January, Saturday

    Time Temperature Precipitation Wind Pressure Humidity
    00:00 +7°C° 0 mm 3 mps 755 mmHg 88%
    01:00 +7°C° 0 mm 3 mps 755 mmHg 86%
    02:00 +7°C° 0 mm 3 mps 755 mmHg 85%
    03:00 +7°C° 0.1 mm 3 mps 755 mmHg 86%
    04:00 +5°C° 0.1 mm 3 mps 754 mmHg 87%
    05:00 +5°C° 0.1 mm 3 mps 754 mmHg 88%
    06:00 +5°C° 0.4 mm 4 mps 754 mmHg 90%
    07:00 +5°C° 0.4 mm 4 mps 754 mmHg 92%
    08:00 +5°C° 0.4 mm 4 mps 754 mmHg 94%
    09:00 +5°C° 0 mm 4 mps 754 mmHg 92%
    10:00 +6°C° 0 mm 4 mps 754 mmHg 89%
    11:00 +6°C° 0 mm 4 mps 753 mmHg 87%
    12:00 +7°C° 0 mm 4 mps 753 mmHg 86%
    13:00 +8°C° 0 mm 3 mps 753 mmHg 84%
    14:00 +8°C° 0 mm 3 mps 752 mmHg 83%
    15:00 +8°C° 0.1 mm 3 mps 752 mmHg 86%
    16:00 +8°C° 0.1 mm 2 mps 752 mmHg 89%
    17:00 +7°C° 0.1 mm 2 mps 752 mmHg 91%
    18:00 +7°C° 0.1 mm 2 mps 752 mmHg 92%
    19:00 +7°C° 0.1 mm 2 mps 752 mmHg 93%
    20:00 +7°C° 0.1 mm 2 mps 752 mmHg 94%
    21:00 +6°C° 0 mm 2 mps 752 mmHg 95%
    22:00 +6°C° 0 mm 2 mps 752 mmHg 95%
    23:00 +6°C° 0 mm 2 mps 752 mmHg 95%

    27 January, Sunday

    Time Temperature Precipitation Wind Pressure Humidity
    00:00 +6°C° 0 mm 2 mps 752 mmHg 95%
    01:00 +6°C° 0 mm 2 mps 752 mmHg 95%
    02:00 +5°C° 0 mm 2 mps 752 mmHg 96%
    03:00 +5°C° 0 mm 2 mps 752 mmHg 96%
    04:00 +5°C° 0 mm 2 mps 752 mmHg 96%
    05:00 +4°C° 0 mm 3 mps 752 mmHg 97%
    06:00 +4°C° 0 mm 3 mps 752 mmHg 97%
    07:00 +4°C° 0 mm 3 mps 752 mmHg 97%
    08:00 +4°C° 0 mm 3 mps 752 mmHg 97%
    09:00 +5°C° 0 mm 4 mps 752 mmHg 95%
    10:00 +5°C° 0 mm 4 mps 753 mmHg 92%
    11:00 +6°C° 0 mm 4 mps 753 mmHg 90%
    12:00 +6°C° 0 mm 4 mps 753 mmHg 88%
    13:00 +6°C° 0 mm 4 mps 753 mmHg 87%
    14:00 +6°C° 0 mm 4 mps 752 mmHg 86%
    15:00 +6°C° 0 mm 4 mps 753 mmHg 86%
    16:00 +5°C° 0 mm 3 mps 753 mmHg 87%
    17:00 +5°C° 0 mm 3 mps 753 mmHg 87%
    18:00 +5°C° 0 mm 3 mps 754 mmHg 88%
    19:00 +5°C° 0 mm 3 mps 754 mmHg 88%
    20:00 +5°C° 0 mm 3 mps 755 mmHg 89%
    21:00 +4°C° 0 mm 3 mps 755 mmHg 89%
    22:00 +4°C° 0 mm 3 mps 755 mmHg 89%
    23:00 +4°C° 0 mm 4 mps 756 mmHg 90%
    Show more